AUA251 LOWW-EDDH

Flight info

Callsign AUA251
Flight time 1h 13m
Altitude 38000
Route LANUX DCT LALUK DCT MILGU DCT SOGMA M748 BUMIL/N0407F240 M748 RARUP RARUP3S
Aircraft A320/M-SDE3FGHIRWY/LB1

Departure

Time 2026-04-25 14:39
Airport Vienna International Airport (LOWW)

Arrival

Time 2026-04-25 15:53
Airport Hamburg Helmut Schmidt Airport (EDDH)
Time Latitude Longitude Altitude Speed Heading
2026-04-25 14:30 48.11818 16.57053 602 ft 0 kts 206°
2026-04-25 14:33 48.11823 16.57056 602 ft 2 kts 206°
2026-04-25 14:33 48.11839 16.57067 602 ft 3 kts 206°
2026-04-25 14:33 48.11854 16.57079 601 ft 2 kts 206°
2026-04-25 14:34 48.11870 16.57090 601 ft 3 kts 206°
2026-04-25 14:34 48.11886 16.57101 601 ft 3 kts 206°
2026-04-25 14:34 48.11895 16.57108 600 ft 0 kts 206°
2026-04-25 14:35 48.11889 16.57105 601 ft 4 kts 199°
2026-04-25 14:36 48.11839 16.57184 603 ft 18 kts 91°
2026-04-25 14:36 48.11796 16.57335 603 ft 15 kts 141°
2026-04-25 14:36 48.11710 16.57379 611 ft 12 kts 164°
2026-04-25 14:36 48.11594 16.57429 610 ft 21 kts 164°
2026-04-25 14:37 48.11459 16.57434 609 ft 19 kts 203°
2026-04-25 14:37 48.11346 16.57352 621 ft 17 kts 206°
2026-04-25 14:37 48.11240 16.57271 628 ft 17 kts 207°
2026-04-25 14:37 48.11137 16.57193 631 ft 16 kts 206°
2026-04-25 14:38 48.11070 16.57071 631 ft 16 kts 278°
2026-04-25 14:38 48.11123 16.56900 628 ft 25 kts 296°
2026-04-25 14:38 48.11284 16.56399 624 ft 88 kts 296°
2026-04-25 14:38 48.11641 16.55292 614 ft 146 kts 296°
2026-04-25 14:39 48.12100 16.53818 1116 ft 155 kts 293°
2026-04-25 14:39 48.12343 16.52267 1883 ft 157 kts 269°
2026-04-25 14:39 48.12189 16.50578 2325 ft 177 kts 262°
2026-04-25 14:39 48.11924 16.48651 2672 ft 202 kts 261°
2026-04-25 14:40 48.11785 16.46452 3118 ft 224 kts 276°
2026-04-25 14:40 48.11946 16.44009 3632 ft 247 kts 279°
2026-04-25 14:40 48.12183 16.41428 4572 ft 251 kts 280°
2026-04-25 14:40 48.12449 16.38826 5591 ft 255 kts 280°
2026-04-25 14:41 48.12725 16.36194 6590 ft 257 kts 280°
2026-04-25 14:41 48.13005 16.33527 7510 ft 260 kts 281°
2026-04-25 14:41 48.13286 16.30845 8489 ft 263 kts 280°
2026-04-25 14:41 48.13572 16.28125 9407 ft 267 kts 279°
2026-04-25 14:42 48.13873 16.25350 10243 ft 272 kts 282°
2026-04-25 14:42 48.14234 16.23475 10546 ft 286 kts 292°
2026-04-25 14:42 48.15794 16.20066 10959 ft 317 kts 316°
2026-04-25 14:42 48.17660 16.18207 11594 ft 328 kts 332°
2026-04-25 14:43 48.19726 16.16702 12406 ft 332 kts 332°
2026-04-25 14:43 48.21813 16.15165 13196 ft 336 kts 331°
2026-04-25 14:43 48.23918 16.13601 13963 ft 340 kts 331°
2026-04-25 14:43 48.26049 16.12014 14664 ft 343 kts 331°
2026-04-25 14:44 48.28195 16.10415 15382 ft 346 kts 331°
2026-04-25 14:44 48.30362 16.08804 16097 ft 349 kts 330°
2026-04-25 14:44 48.32550 16.07176 16792 ft 352 kts 330°
2026-04-25 14:44 48.34758 16.05532 17483 ft 356 kts 330°
2026-04-25 14:45 48.36228 16.04438 17938 ft 358 kts 330°
2026-04-25 14:45 48.39231 16.02200 18780 ft 362 kts 330°
2026-04-25 14:45 48.41500 16.00506 19394 ft 365 kts 330°
2026-04-25 14:45 48.43779 15.98802 20006 ft 367 kts 330°
2026-04-25 14:46 48.46080 15.97081 20599 ft 371 kts 329°
2026-04-25 14:46 48.48400 15.95346 21166 ft 374 kts 329°
2026-04-25 14:46 48.50743 15.93594 21752 ft 377 kts 329°
2026-04-25 14:46 48.53104 15.91823 22346 ft 380 kts 329°
2026-04-25 14:47 48.55479 15.90034 22908 ft 383 kts 329°
2026-04-25 14:47 48.57065 15.88836 23267 ft 385 kts 328°
2026-04-25 14:47 48.60242 15.86281 23898 ft 388 kts 326°
2026-04-25 14:47 48.62602 15.84265 24341 ft 390 kts 325°
2026-04-25 14:48 48.64962 15.82202 24780 ft 393 kts 325°
2026-04-25 14:48 48.67326 15.80124 25267 ft 393 kts 325°
2026-04-25 14:48 48.69670 15.78074 25712 ft 395 kts 325°
2026-04-25 14:48 48.72059 15.76002 26130 ft 397 kts 325°
2026-04-25 14:49 48.74466 15.73926 26534 ft 400 kts 325°
2026-04-25 14:49 48.76893 15.71840 26929 ft 402 kts 325°
2026-04-25 14:49 48.79337 15.69745 27327 ft 405 kts 326°
2026-04-25 14:49 48.81795 15.67638 27713 ft 407 kts 325°
2026-04-25 14:50 48.84261 15.65516 28089 ft 409 kts 325°
2026-04-25 14:50 48.86749 15.63369 28464 ft 412 kts 325°
2026-04-25 14:50 48.89248 15.61209 28831 ft 414 kts 325°
2026-04-25 14:50 48.91757 15.59036 29215 ft 416 kts 325°
2026-04-25 14:51 48.94272 15.56856 29576 ft 417 kts 325°
2026-04-25 14:51 48.96799 15.54663 29903 ft 419 kts 325°
2026-04-25 14:51 48.99339 15.52453 30169 ft 422 kts 325°
2026-04-25 14:51 49.01890 15.50232 30407 ft 424 kts 325°
2026-04-25 14:52 49.04422 15.48027 30658 ft 425 kts 325°
2026-04-25 14:52 49.06992 15.45785 30905 ft 427 kts 325°
2026-04-25 14:52 49.09577 15.43527 31161 ft 427 kts 325°
2026-04-25 14:52 49.11284 15.42036 31381 ft 427 kts 325°
2026-04-25 14:53 49.14726 15.39034 31821 ft 425 kts 325°
2026-04-25 14:53 49.17291 15.36794 32200 ft 424 kts 325°
2026-04-25 14:53 49.19843 15.34565 32586 ft 421 kts 324°
2026-04-25 14:53 49.22382 15.32340 32932 ft 420 kts 324°
2026-04-25 14:54 49.24913 15.30114 33272 ft 419 kts 324°
2026-04-25 14:54 49.27439 15.27887 33615 ft 419 kts 324°
2026-04-25 14:54 49.29963 15.25662 33929 ft 418 kts 324°
2026-04-25 14:54 49.32485 15.23432 34223 ft 418 kts 324°
2026-04-25 14:55 49.34998 15.21206 34513 ft 417 kts 324°
2026-04-25 14:55 49.37511 15.18980 34804 ft 416 kts 324°
2026-04-25 14:55 49.40018 15.16761 35090 ft 416 kts 325°
2026-04-25 14:55 49.42522 15.14546 35390 ft 415 kts 326°
2026-04-25 14:56 49.45018 15.12334 35677 ft 413 kts 326°
2026-04-25 14:56 49.47502 15.10126 35949 ft 412 kts 326°
2026-04-25 14:56 49.49982 15.07921 36205 ft 411 kts 326°
2026-04-25 14:56 49.52458 15.05720 36444 ft 411 kts 326°
2026-04-25 14:57 49.54928 15.03520 36679 ft 410 kts 326°
2026-04-25 14:57 49.57397 15.01313 36905 ft 410 kts 326°
2026-04-25 14:57 49.59859 14.99108 37129 ft 409 kts 326°
2026-04-25 14:57 49.62321 14.96900 37314 ft 410 kts 326°
2026-04-25 14:58 49.64786 14.94691 37494 ft 410 kts 326°
2026-04-25 14:58 49.67254 14.92477 37693 ft 410 kts 326°
2026-04-25 14:58 49.69688 14.90292 37925 ft 410 kts 326°
2026-04-25 14:58 49.72160 14.88072 37985 ft 410 kts 326°
2026-04-25 14:59 49.77090 14.83636 37985 ft 410 kts 326°
2026-04-25 14:59 49.82046 14.79159 37989 ft 410 kts 326°
2026-04-25 15:00 49.86932 14.74737 37991 ft 409 kts 326°
2026-04-25 15:00 49.91848 14.70278 37991 ft 409 kts 326°
2026-04-25 15:01 49.96764 14.65809 38022 ft 409 kts 326°
2026-04-25 15:01 50.01677 14.61330 38021 ft 409 kts 326°
2026-04-25 15:02 50.06588 14.56851 38020 ft 408 kts 326°
2026-04-25 15:02 50.11484 14.52371 38017 ft 408 kts 326°
2026-04-25 15:03 50.16376 14.47874 38015 ft 408 kts 326°
2026-04-25 15:03 50.21263 14.43370 38015 ft 408 kts 326°
2026-04-25 15:04 50.26113 14.38905 37991 ft 408 kts 326°
2026-04-25 15:04 50.31002 14.34389 37988 ft 408 kts 326°
2026-04-25 15:05 50.35878 14.29852 37993 ft 408 kts 326°
2026-04-25 15:06 50.43201 14.23038 37993 ft 408 kts 326°
2026-04-25 15:06 50.48076 14.18488 38021 ft 408 kts 326°
2026-04-25 15:07 50.52919 14.13968 38014 ft 407 kts 326°
2026-04-25 15:07 50.57781 14.09413 38017 ft 406 kts 326°
2026-04-25 15:08 50.62632 14.04854 38009 ft 406 kts 326°
2026-04-25 15:08 50.67485 14.00294 38006 ft 406 kts 326°
2026-04-25 15:09 50.72329 13.95723 38008 ft 406 kts 326°
2026-04-25 15:09 50.79561 13.88863 38022 ft 403 kts 325°
2026-04-25 15:10 50.84270 13.84099 38027 ft 401 kts 322°
2026-04-25 15:11 50.91100 13.76474 38031 ft 400 kts 321°
2026-04-25 15:11 50.95658 13.71409 38034 ft 400 kts 322°
2026-04-25 15:12 51.02520 13.63909 38069 ft 401 kts 322°
2026-04-25 15:12 51.05592 13.60544 38060 ft 401 kts 322°
2026-04-25 15:13 51.13990 13.51306 38045 ft 400 kts 322°
2026-04-25 15:14 51.18565 13.46238 38040 ft 400 kts 322°
2026-04-25 15:14 51.23142 13.41164 38014 ft 400 kts 322°
2026-04-25 15:15 51.27716 13.36088 38014 ft 401 kts 322°
2026-04-25 15:15 51.32287 13.30981 38044 ft 401 kts 321°
2026-04-25 15:16 51.36823 13.25901 38031 ft 401 kts 321°
2026-04-25 15:16 51.43684 13.18211 38025 ft 401 kts 321°
2026-04-25 15:17 51.50532 13.10504 38020 ft 401 kts 321°
2026-04-25 15:18 51.55092 13.05360 38009 ft 401 kts 321°
2026-04-25 15:18 51.62033 12.97841 38030 ft 401 kts 323°
2026-04-25 15:19 51.64830 12.94065 38026 ft 396 kts 313°
2026-04-25 15:19 51.70074 12.85802 38017 ft 396 kts 313°
2026-04-25 15:20 51.73999 12.79572 38016 ft 396 kts 313°
2026-04-25 15:20 51.77929 12.73325 38013 ft 396 kts 313°
2026-04-25 15:21 51.81863 12.67084 38005 ft 396 kts 313°
2026-04-25 15:21 51.85122 12.61886 38037 ft 396 kts 313°
2026-04-25 15:22 51.89029 12.55605 38036 ft 396 kts 313°
2026-04-25 15:22 51.92940 12.49327 38020 ft 396 kts 313°
2026-04-25 15:23 51.96850 12.43044 38014 ft 396 kts 313°
2026-04-25 15:23 52.00752 12.36750 38025 ft 395 kts 313°
2026-04-25 15:24 52.04651 12.30451 37985 ft 396 kts 313°
2026-04-25 15:24 52.07888 12.25202 37998 ft 396 kts 313°
2026-04-25 15:25 52.12445 12.17783 38003 ft 397 kts 313°
2026-04-25 15:25 52.16347 12.11413 38031 ft 397 kts 313°
2026-04-25 15:26 52.20252 12.05045 38030 ft 397 kts 313°
2026-04-25 15:26 52.22207 12.01848 37802 ft 397 kts 313°
2026-04-25 15:26 52.24156 11.98653 37511 ft 396 kts 313°
2026-04-25 15:27 52.26093 11.95473 36851 ft 395 kts 314°
2026-04-25 15:27 52.28000 11.92335 36197 ft 393 kts 314°
2026-04-25 15:27 52.31849 11.85988 34728 ft 393 kts 314°
2026-04-25 15:28 52.33777 11.82807 33971 ft 394 kts 314°
2026-04-25 15:28 52.35704 11.79624 33137 ft 393 kts 314°
2026-04-25 15:28 52.37632 11.76437 32279 ft 394 kts 314°
2026-04-25 15:28 52.39543 11.73276 31788 ft 386 kts 314°
2026-04-25 15:29 52.41416 11.70170 31241 ft 381 kts 314°
2026-04-25 15:29 52.43264 11.67099 30729 ft 376 kts 314°
2026-04-25 15:29 52.45091 11.64063 30166 ft 372 kts 314°
2026-04-25 15:29 52.46896 11.61059 29588 ft 367 kts 314°
2026-04-25 15:30 52.48671 11.58104 29079 ft 361 kts 314°
2026-04-25 15:30 52.50418 11.55187 28568 ft 355 kts 313°
2026-04-25 15:30 52.52136 11.52312 28044 ft 350 kts 314°
2026-04-25 15:30 52.53828 11.49478 27584 ft 345 kts 313°
2026-04-25 15:31 52.55494 11.46681 27109 ft 341 kts 313°
2026-04-25 15:31 52.57143 11.43907 26635 ft 337 kts 313°
2026-04-25 15:31 52.58752 11.41199 26176 ft 334 kts 313°
2026-04-25 15:31 52.60366 11.38481 25720 ft 331 kts 313°
2026-04-25 15:32 52.61966 11.35787 25260 ft 327 kts 313°
2026-04-25 15:32 52.63550 11.33119 24834 ft 324 kts 313°
2026-04-25 15:32 52.65115 11.30478 24410 ft 321 kts 313°
2026-04-25 15:33 52.68218 11.25243 23598 ft 317 kts 313°
2026-04-25 15:33 52.69754 11.22647 23157 ft 315 kts 313°
2026-04-25 15:33 52.71276 11.20069 22766 ft 313 kts 312°
2026-04-25 15:33 52.72787 11.17505 22417 ft 311 kts 312°
2026-04-25 15:34 52.74285 11.14964 22003 ft 307 kts 312°
2026-04-25 15:34 52.75766 11.12453 21627 ft 304 kts 312°
2026-04-25 15:34 52.77237 11.09951 21239 ft 303 kts 313°
2026-04-25 15:34 52.78207 11.08300 20988 ft 302 kts 312°
2026-04-25 15:35 52.81601 11.02512 20079 ft 298 kts 312°
2026-04-25 15:35 52.83015 11.00092 19691 ft 296 kts 312°
2026-04-25 15:35 52.84445 10.97644 19283 ft 294 kts 312°
2026-04-25 15:36 52.87278 10.92795 18510 ft 291 kts 312°
2026-04-25 15:36 52.88680 10.90387 18080 ft 289 kts 312°
2026-04-25 15:36 52.90073 10.87999 17669 ft 287 kts 312°
2026-04-25 15:37 52.91456 10.85627 17281 ft 285 kts 312°
2026-04-25 15:37 52.92826 10.83272 16891 ft 283 kts 312°
2026-04-25 15:37 52.94186 10.80928 16508 ft 281 kts 312°
2026-04-25 15:37 52.95539 10.78593 16130 ft 279 kts 311°
2026-04-25 15:38 52.96881 10.76276 15746 ft 278 kts 311°
2026-04-25 15:38 52.98212 10.73976 15382 ft 276 kts 311°
2026-04-25 15:38 52.99537 10.71685 15011 ft 274 kts 311°
2026-04-25 15:38 53.00851 10.69413 14633 ft 272 kts 311°
2026-04-25 15:39 53.02147 10.67170 14276 ft 271 kts 311°
2026-04-25 15:39 53.03445 10.64925 13907 ft 269 kts 311°
2026-04-25 15:39 53.04739 10.62684 13503 ft 268 kts 311°
2026-04-25 15:39 53.06022 10.60454 13130 ft 266 kts 311°
2026-04-25 15:40 53.07295 10.58239 12749 ft 264 kts 311°
2026-04-25 15:40 53.08149 10.56753 12502 ft 262 kts 311°
2026-04-25 15:40 53.09813 10.53857 12003 ft 260 kts 311°
2026-04-25 15:40 53.11061 10.51685 11628 ft 258 kts 311°
2026-04-25 15:41 53.12298 10.49530 11250 ft 257 kts 311°
2026-04-25 15:41 53.13528 10.47385 10857 ft 255 kts 311°
2026-04-25 15:41 53.14747 10.45251 10508 ft 253 kts 311°
2026-04-25 15:41 53.15942 10.43158 10299 ft 245 kts 311°
2026-04-25 15:42 53.17105 10.41119 10044 ft 241 kts 311°
2026-04-25 15:42 53.18254 10.39103 9900 ft 239 kts 311°
2026-04-25 15:42 53.19434 10.37147 9768 ft 240 kts 317°
2026-04-25 15:42 53.20840 10.35619 9633 ft 244 kts 328°
2026-04-25 15:43 53.22338 10.34361 9394 ft 245 kts 328°
2026-04-25 15:43 53.23855 10.33088 8958 ft 244 kts 328°
2026-04-25 15:43 53.25367 10.31816 8509 ft 243 kts 328°
2026-04-25 15:43 53.26879 10.30542 8052 ft 243 kts 328°
2026-04-25 15:44 53.28390 10.29264 7607 ft 243 kts 328°
2026-04-25 15:44 53.29897 10.27987 7161 ft 243 kts 328°
2026-04-25 15:44 53.31393 10.26720 6785 ft 240 kts 328°
2026-04-25 15:44 53.32883 10.25453 6419 ft 236 kts 328°
2026-04-25 15:45 53.34309 10.24242 6280 ft 223 kts 328°
2026-04-25 15:45 53.35653 10.23101 6161 ft 211 kts 327°
2026-04-25 15:45 53.36936 10.22011 5915 ft 204 kts 327°
2026-04-25 15:45 53.37761 10.21309 5828 ft 200 kts 327°
2026-04-25 15:46 53.39445 10.19864 5303 ft 203 kts 327°
2026-04-25 15:46 53.40697 10.18796 4961 ft 201 kts 327°
2026-04-25 15:46 53.41936 10.17741 4392 ft 199 kts 328°
2026-04-25 15:46 53.43171 10.16688 3844 ft 196 kts 328°
2026-04-25 15:47 53.44342 10.15693 3667 ft 183 kts 328°
2026-04-25 15:47 53.45472 10.14727 3547 ft 182 kts 328°
2026-04-25 15:47 53.46600 10.13758 3454 ft 183 kts 328°
2026-04-25 15:47 53.47723 10.12795 3372 ft 177 kts 329°
2026-04-25 15:48 53.48761 10.11912 3312 ft 157 kts 328°
2026-04-25 15:48 53.49692 10.11118 3197 ft 146 kts 328°
2026-04-25 15:48 53.50595 10.10342 2951 ft 145 kts 328°
2026-04-25 15:48 53.51479 10.09581 2737 ft 141 kts 328°
2026-04-25 15:49 53.52340 10.08840 2534 ft 137 kts 327°
2026-04-25 15:49 53.53169 10.08127 2351 ft 127 kts 327°
2026-04-25 15:49 53.53944 10.07463 2166 ft 123 kts 327°
2026-04-25 15:49 53.54701 10.06812 1983 ft 122 kts 327°
2026-04-25 15:50 53.55452 10.06166 1808 ft 120 kts 327°
2026-04-25 15:50 53.56192 10.05526 1638 ft 119 kts 327°
2026-04-25 15:50 53.56934 10.04884 1464 ft 120 kts 327°
2026-04-25 15:50 53.57682 10.04238 1308 ft 121 kts 326°
2026-04-25 15:51 53.58427 10.03596 1124 ft 120 kts 326°
2026-04-25 15:51 53.58919 10.03170 997 ft 120 kts 326°
2026-04-25 15:51 53.59905 10.02319 764 ft 119 kts 326°
2026-04-25 15:51 53.60652 10.01671 590 ft 119 kts 325°
2026-04-25 15:52 53.61401 10.01022 409 ft 122 kts 328°
2026-04-25 15:52 53.62153 10.00367 247 ft 120 kts 327°
2026-04-25 15:52 53.62895 9.99736 64 ft 117 kts 326°
2026-04-25 15:52 53.63462 9.99199 49 ft 56 kts 335°
2026-04-25 15:53 53.63628 9.99073 50 ft 20 kts 336°
2026-04-25 15:53 53.63784 9.98952 48 ft 26 kts 336°
2026-04-25 15:53 53.63945 9.98842 49 ft 19 kts 356°
2026-04-25 15:53 53.63938 9.98953 50 ft 13 kts 128°
2026-04-25 15:54 53.63885 9.99066 50 ft 12 kts 128°
2026-04-25 15:54 53.63840 9.99173 50 ft 11 kts 124°
2026-04-25 15:54 53.63797 9.99277 51 ft 11 kts 124°
2026-04-25 15:54 53.63754 9.99375 51 ft 10 kts 128°
2026-04-25 15:55 53.63712 9.99468 51 ft 11 kts 126°
2026-04-25 15:55 53.63655 9.99599 51 ft 18 kts 126°
2026-04-25 15:55 53.63580 9.99774 49 ft 18 kts 125°
2026-04-25 15:55 53.63508 9.99943 50 ft 18 kts 126°
2026-04-25 15:56 53.63438 10.00103 51 ft 16 kts 127°
2026-04-25 15:56 53.63345 10.00163 51 ft 15 kts 175°
2026-04-25 15:56 53.63290 10.00237 51 ft 11 kts 78°
2026-04-25 15:56 53.63294 10.00350 51 ft 0 kts 86°
2026-04-25 15:57 53.63294 10.00352 51 ft 0 kts 86°
2026-04-25 15:57 53.63294 10.00353 51 ft 0 kts 86°